Regional Weather Roundup
Issued by NWS Charleston, SC

Current Version | Previous Version | Graphics & Text | Print | Product List | Glossary On
Versions: 1 2 3 4 5 6 7 8 9 10 11 12 13 14 15 16 17 18 19 20 21 22 23 24 25 26 27 28 29 30 31 32 33 34 35 36 37 38 39 40 41 42 43 44 45 46 47 48 49 50
000
ASUS42 KCHS 271412
RWRCHS

REGIONAL WEATHER ROUNDUP
NATIONAL WEATHER SERVICE CHARLESTON SC
1000 AM EDT MON JUL 27 2015

NOTE: "FAIR" INDICATES FEW OR NO CLOUDS BELOW 12,000 FEET WITH NO
SIGNIFICANT WEATHER AND/OR OBSTRUCTIONS TO VISIBILITY.

NOT ALL STATIONS ARE QUALITY CONTROLLED BY THE NATIONAL
WEATHER SERVICE. USE DATA WITH CAUTION...ESPECIALLY
DEWPOINT OBSERVATIONS.

SCZ027-030-031-034>040-042>050-271500-
...SOUTHEAST SOUTH CAROLINA...

CITY           SKY/WX    TMP DP  RH WIND       PRES   REMARKS
N CHARLESTON   PTSUNNY   79  75  87 CALM      29.99R
WATERFRONT PRK   N/A     82  79  90 N7        29.95R HX  92
MOUNT PLEASANT FAIR      84  79  84 N3        29.98S HX  96
JOHNS ISLAND   PTSUNNY   84  79  84 N7        29.98S HX  96
PINOPOLIS      NOT AVBL
MONCKS CORNER  CLOUDY    81  75  83 N3        30.00R
SUMMERVILLE    CLOUDY    77  77 100 N3        30.01R
BEAUFORT MCAS  PTSUNNY   80  76  87 NE8       29.99R
BEAUFORT ARPT  CLOUDY    79  77  94 N7        29.98R
HILTON HEAD IS MOSUNNY   82  77  83 N9        29.99R HX  91
WALTERBORO     CLOUDY    79  77  94 NE5       30.01S
ALLENDALE      FAIR      79  75  89 CALM      30.00S

...SOUTHERN MIDLANDS AND PEE DEE...

CITY           SKY/WX    TMP DP  RH WIND       PRES   REMARKS
GEORGETOWN     NOT AVBL
KINGSTREE      NOT AVBL
ORANGEBURG     MOSUNNY   80  72  76 CALM      30.02R
BARNWELL       FAIR      82  73  74 NE3       30.02S
AIKEN          FAIR      82  64  54 CALM      30.05F
MANNING        CLOUDY    73  73 100 NW3       30.02R
COLUMBIA       MOSUNNY   84  70  62 CALM      30.02R
SUMTER         MOSUNNY   80  72  77 VRB3      30.00S
FLORENCE       PTSUNNY   83  75  77 NE3       30.02R HX  90
MYRTLE BEACH   PTSUNNY   86  73  66 E7        30.01R HX  93
N MYRTLE BEACH MOSUNNY   84  75  74 E7        30.00R HX  92

$$

GAZ063-065-086>088-099>101-113>116-118-119-134>141-150-271500-
...SOUTHEAST GEORGIA...

CITY           SKY/WX    TMP DP  RH WIND       PRES   REMARKS
SAVANNAH ARPT  PTSUNNY   80  75  84 N9        29.99R
HUNTER AAF     MOSUNNY   84  80  87 N9        29.95R HX  96
FORT STEWART   MOSUNNY   84  76  78 NE8       29.96R HX  93
STATESBORO     SUNNY     82  80  94 NE3       30.00S HX  94
SYLVANIA       SUNNY     83  76  80 E5        30.02R HX  92
CLAXTON        CLOUDY    79  77  94 NE3       30.00R

...CSRA...CENTRAL AND FAR SOUTHEAST GEORGIA...

CITY           SKY/WX    TMP DP  RH WIND       PRES   REMARKS
THOMSON        MOSUNNY   85  72  63 CALM      30.07S HX  91
AUGUSTA-BUSH   SUNNY     85  69  58 CALM      30.00S
AUGUSTA-DANIEL SUNNY     84  68  58 SW3       30.03S
SWAINSBORO     FAIR      86  73  66 CALM      30.02S HX  93
VIDALIA        SUNNY     82  73  74 NE7       30.00F
EASTMAN        FAIR      83  73  71 CALM      30.03F HX  90
HAZLEHURST     CLOUDY    81  77  86 N3        29.99S
ALMA           MOSUNNY   82  76  81 VRB6      29.98R
WAYCROSS       PTSUNNY   85  79  84 N6        29.97S HX  98
JESUP          CLOUDY    82  79  89 NE6       29.98R HX  93
BAXLEY         PTSUNNY   82  77  83 NE5       29.99R HX  91
BRUNSWICK        N/A     81  79  94 CALM      29.96R
SAINT SIMONS   MOSUNNY   85  78  80 NE7       29.95R HX  96

$$

SCZ027-028-034-036>038-045-046-048>050-GAZ119-141-271500-
...LAKE AND SUPPLEMENTAL COASTAL OBSERVATIONS...

STATION/POSITION TIME  TEMP    WIND        PRES    WAVE   SWELL
                       AIR SEA DIR/SP/G            HT/PER HT/PER/DIR
                 (UTC) (F)     (DEG/KT/KT) (MB)    (FT/S) (FT/S/D)
UPR LAKE MARION  NOT AVBL
WINYAH BAY       NOT AVBL
LAKE MURRAY      1300   80      CALM  /  1 1015.9R
ACE BASIN NERRS  NOT AVBL
FORT PULASKI     1300   82 85   30/  8/ 11 1014.9R
SAPELO ISLAND    1300   84      20/  6     1014.0R

$$

ANZ835-935-AMZ111-154-330-350-352-354-370-450-454-472-271500-
...C-MAN AND BUOY OBSERVATIONS...

STATION/POSITION TIME  TEMP    WIND        PRES    WAVE   SWELL
                       AIR SEA DIR/SP/G            HT/PER HT/PER/DIR
                 (UTC) (F)     (DEG/KT/KT) (MB)    (FT/S) (FT/S/D)
BUOY 41004       1350   80 83  110/  6/  6 1014.5R   2/ 6   2/ 6
BUOY 41008       1350   81 82   50/  4/  6 1014.4R   2/ 8   2/ 80/ 8
FOLLY BEACH CMAN 1300   81      20/  6/  7 1014.9R
CAPERS NEARSHORE 1308   82      50/ 10/ 12 1015.1R
FRIPP NEARSHORE  1300   84      60/  8/ 10 1014.2R


STATION/POSITION TIME  TEMP    WIND        PRES    WAVE   SWELL
                       AIR SEA DIR/SP/G            HT/PER HT/PER/DIR
                 (UTC) (F)     (DEG/KT/KT) (MB)    (FT/S) (FT/S/D)
5E ST. MARYS GA  1321      80                N/A     2/ 6
FRYING PAN BUOY  1350   84 83  130/  8/ 10 1015.6R   3/ 6   3/ 90/ 6
BUOY 41025       NOT AVBL
CAPE LOOKOUT NC  1300   81     110/  7/  8 1016.0R
BUOY 41002       1350   81 82  290/  6/  8 1015.7R   4/ 6   3/190/ 6
BUOY 41010       1320   85 84  210/ 19/ 23 1015.1R
ST AUGUSTINE FL  1400   81 79  230/  4/  5 1015.1R


$$


USA.gov is the U.S. government's official web portal to all federal, state and local government web resources and services.